sat.trackr.live / text

‹ back to catalog

STARLINK-11308 [DTC]

NORAD 61246 · 2024-175D

PAYLOAD ACTIVE UNKNOWN

§ Identity

Operator
Country
US
Launch date
2024-09-25
Launch site
AFWTR
Launch vehicle
Mass (kg)
RCS (m²)

Purposes: comms

External: N2YO · Heavens-Above · Gunter

§ Orbital elements

Epoch: 2026-05-25T03:08:18.990240Z

Period
91.74 min
Inclination
53.1573°
Eccentricity
0.0000919
Mean motion
15.69717120 rev/d
Perigee alt
359.1 km
Apogee alt
360.3 km
Semi-major
6,737.8 km
B*
5.2948e-5
RAAN
39.3476°
Arg perigee
66.2510°
Mean anomaly
293.8604°
Rev number
9,537

§ Raw data

STARLINK-11308 [DTC]1 61246U 24175D   26145.13077535  .00005833  00000+0  52948-4 0  99972 61246  53.1573  39.3476 0000919  66.2510 293.8604 15.69717120 95371

JSON: /api/v1/satellites/61246 · /tle

For live sub-satellite position, see the globe view (requires WebGL).

§ Visibility from observer

Set your observer location to see the next 7 days of passes ≥ 10°. The values pass through the URL so the page stays shareable.

No JS? Fill the form by hand. The geolocation button needs JavaScript.